Flag for U.S.A. Weather past 2 weeks in New Haven, Connecticut, U.S.A.

Now
61 °F

Mostly cloudy.


Feels Like: 61 °F
Forecast: 57 / 67 °F
Wind: 7 mph from North

Location: Tweed-New Haven Airport

Current Time: Oct 2, 2014 at 6:03:20 AM

Latest Report: Oct 2, 2014 at 5:04 AM


Visibility: 10 mi

Pressure: 30.09 "Hg

Humidity: 81%

Dew point: 55 °F

Location of New HavenLocation

Historic Weather in New Haven — Graph

°F

New Haven temperature yesterday

Maximum temperature yesterday: 65 °F (at 3:53 PM)
Minimum temperature yesterday: 61 °F (at 12:53 AM)
Average temperature yesterday: 62 °F

Past Weeks' High & Low Weather Summary

 TemperatureHumidityPressure
High81 °F (Sep 27, 12:53 PM)93% (Sep 21, 6:53 AM)30.58 "Hg (Sep 21, 6:53 AM)
Low48 °F (Sep 17, 6:53 AM)31% (Sep 18, 4:53 PM)29.60 "Hg (Sep 21, 9:04 PM)
Average64 °F71%30.12 "Hg
* Reported Sep 17 5:53 AM — Oct 2 5:04 AM, New Haven, Weather by CustomWeather, © 2014

Note: Actual official high and low records may vary slightly from our data, if they occured in-between our weather recording intervals... More about our weather records

Advertising

New Haven weather history for previous 24 hours

 ConditionsComfort  
Time TempWeatherWind HumidityBarometerVisibility
5:04 AM
Oct 2
61 °FMostly cloudy.7 mph81%30.09 "Hg10 mi
4:53 AM60 °FMostly cloudy.8 mph83%30.08 "Hg10 mi
3:53 AM61 °FMostly cloudy.9 mph83%30.07 "Hg10 mi
2:53 AM61 °FOvercast.8 mph83%30.08 "Hg10 mi
1:53 AM61 °FMostly cloudy.9 mph83%30.08 "Hg10 mi
12:53 AM61 °FOvercast.10 mph83%30.07 "Hg10 mi
11:53 PM
Oct 1
61 °FOvercast.12 mph83%30.07 "Hg10 mi
10:53 PM61 °FMostly cloudy.13 mph83%30.07 "Hg10 mi
9:53 PM62 °FOvercast.12 mph80%30.07 "Hg10 mi
8:53 PM62 °FOvercast.12 mph83%30.07 "Hg10 mi
7:53 PM62 °FMostly cloudy.9 mph83%30.06 "Hg10 mi
6:53 PM62 °FLight rain. Fog.13 mph86%30.05 "Hg4 mi
6:00 PM63 °FMostly cloudy.8 mph84%30.05 "Hg10 mi
4:53 PM65 °FMostly cloudy.10 mph81%30.03 "Hg10 mi
3:53 PM65 °FMostly cloudy.12 mph85%30.02 "Hg10 mi
2:53 PM64 °FLight rain. Mostly cloudy.12 mph84%30.03 "Hg10 mi
1:53 PM64 °FLight rain. Mostly cloudy.13 mph84%30.03 "Hg9 mi
12:53 PM63 °FLight rain. Mostly cloudy.13 mph87%30.03 "Hg10 mi
11:53 AM62 °FLight rain. Mostly cloudy.12 mph86%30.04 "Hg10 mi
10:53 AM63 °FMostly cloudy.16 mph84%30.04 "Hg10 mi
10:00 AM62 °FOvercast.13 mph83%30.04 "Hg10 mi
9:04 AM62 °FMostly cloudy.13 mph83%30.03 "Hg10 mi
9:00 AM62 °FMostly cloudy.12 mph83%30.03 "Hg10 mi
7:53 AM61 °FLight rain. Mostly cloudy.10 mph87%30.02 "Hg7 mi
6:56 AM61 °FLight rain. Mostly cloudy.13 mph87%30.01 "Hg8 mi
Weather by CustomWeather, © 2014

See weather overviewHow to use our weather pages